CFS Alert, Nunavut

Past 24 Hour Conditions

Date / Time
(EDT)
Conditions Temp
(°C)
Humidity
(%)
Dew Point
(°C)
Wind
(km/h)
Pressure
(kPa)
Visibility
(km)
03 July 2015
8:00 N/A 11   75 7 SW 31 gust 42 101.3 N/A
7:00 N/A 11   73 7 SW 36 gust 44 101.3 N/A
6:00 N/A 10 76 5 WSW 10 101.4 N/A
5:00 N/A 3 85 1 ESE 3 101.4 N/A
4:00 N/A 3 85 1 ESE 3 101.4 N/A
3:00 N/A 4 88 2 ENE 5 101.5 N/A
2:00 N/A 4 85 2 ESE 3 101.5 N/A
1:00 N/A 4 87 2 SSW 3 101.5 N/A
00:00 N/A 3 87 1 ENE 6 101.5 N/A
02 July 2015
23:00 N/A 3 90 2 ENE 5 101.6 N/A
22:00 N/A 3 89 2 calm 101.6 N/A
21:00 N/A 3 93 2 ENE 5 101.6 N/A
20:00 N/A 4 89 2 ENE 3 101.6 N/A
19:00 N/A 3 93 2 E 6 101.6 N/A
18:00 N/A 3 90 1 NE 6 101.6 N/A
17:00 N/A 4 88 2 ESE 5 101.6 N/A
16:00 N/A 3 89 2 E 6 101.6 N/A
15:00 Mostly Cloudy 3 94 2 NNW 8 101.6 24
14:00 Partly Cloudy 3 96 2 N 5 101.6 24
13:00 Mostly Cloudy 2   95 2 ENE 4 101.6 24
12:00 Partly Cloudy 3 96 2 N 4 101.6 24
11:00 Partly Cloudy 3 92 2 E 4 101.6 24
10:00 Mostly Cloudy 3 94 2 ENE 5 101.6 24
9:00 Partly Cloudy 2   96 2 N 5 101.6 24
8:00 Partly Cloudy 2   95 2 E 4 101.6 24
N/A Not available
↑ Highest temperature
↓ Lowest temperature

If you require additional historical weather information, please visit Climate Data Online.

What we are doing

Date modified: